sat.trackr.live / text

‹ back to catalog

STARLINK-5044

NORAD 53898 · 2022-119N

PAYLOAD ACTIVE UNKNOWN

§ Identity

Operator
Country
US
Launch date
2022-09-24
Launch site
AFETR
Launch vehicle
Mass (kg)
RCS (m²)

Purposes: comms

External: N2YO · Heavens-Above · Gunter

§ Orbital elements

Epoch: 2026-05-24T23:10:37.659360Z

Period
95.44 min
Inclination
53.2130°
Eccentricity
0.0001559
Mean motion
15.08825040 rev/d
Perigee alt
538.7 km
Apogee alt
540.9 km
Semi-major
6,917.9 km
B*
2.2164e-4
RAAN
341.4237°
Arg perigee
90.7091°
Mean anomaly
269.4080°
Rev number
20,320

§ Raw data

STARLINK-50441 53898U 22119N   26144.96571365  .00003240  00000+0  22164-3 0  99932 53898  53.2130 341.4237 0001559  90.7091 269.4080 15.08825040203208

JSON: /api/v1/satellites/53898 · /tle

For live sub-satellite position, see the globe view (requires WebGL).

§ Visibility from observer

Set your observer location to see the next 7 days of passes ≥ 10°. The values pass through the URL so the page stays shareable.

No JS? Fill the form by hand. The geolocation button needs JavaScript.